Voltar ao catálogo

THOR ABLESTAR DEB

AtivoLEO
NORAD 335·DEBRIS·🇺🇸 United States

Lançado Jun 29, 1961 de Cape Canaveral Space Force Station

Loading…

Próximas Passagens (próximas 24 horas)

TLE

AtualizadoSource: Space-Track

Época: Sep 9, 2026, 09:31 UTC

1 00335U 61015DM  26252.39717389  .00000437  00000-0  22919-3 0  9998
2 00335  66.8379 273.0796 0030847 113.3986 247.0359 14.23083094339299

Acompanhe THOR ABLESTAR DEB em tempo real com AllMySat

Download on the App Store